Regional Weather Roundup
Issued by NWS

Home | Current Version | Previous Version | Text Only | Print | Product List | Glossary Off
Versions: 1 2 3 4 5 6 7 8 9 10 11 12 13 14 15 16 17 18 19 20 21 22 23 24 25 26 27 28 29 30 31 32 33 34 35 36 37 38 39 40 41 42 43 44 45 46 47 48 49 50

000
ASUS43 KOAX 181710
RWRNE

WEATHER ROUNDUP FOR NEBRASKA
NATIONAL WEATHER SERVICE OMAHA NE
1100 AM CST SAT FEB 18 2017

NOTES: SATELLITE DATA IS BEING USED TO AUGMENT CLOUD COVER ABOVE
       12000 FEET.
       "FAIR" INDICATES FEW OR NO CLOUDS BELOW 12,000 FEET WITH NO
       SIGNIFICANT WEATHER AND/OR OBSTRUCTIONS TO VISIBILITY.

  * THESE STATIONS DO NOT REPORT WEATHER SUCH AS RAIN...SNOW OR FOG.

NEZ001>004-019>022-054>056-181800-
NEBRASKA PANHANDLE

CITY           SKY/WX    TMP DP  RH WIND       PRES   REMARKS
SCOTTSBLUFF    CLOUDY    53  26  35 S13       29.75S
ALLIANCE       CLOUDY    49  23  36 S17       29.76S
CHADRON        MOSUNNY   54  28  36 S18G25    29.69S
KIMBALL        CLOUDY    50  29  44 S16       29.78S
SIDNEY         CLOUDY    49  26  41 S16       29.79F
$$

NEZ057>060-069>072-079>082-181800-
SOUTHWEST NEBRASKA

CITY           SKY/WX    TMP DP  RH WIND       PRES   REMARKS
NORTH PLATTE   SUNNY     50  29  44 CALM      29.82S
IMPERIAL       SUNNY     49  28  44 S8        29.82F
LEXINGTON      SUNNY     52  31  45 SE8       29.84R
MCCOOK         SUNNY     49  30  48 E3        29.83S
OGALLALA       MOSUNNY   52  29  40 S9        29.80F
$$

NEZ005>010-023>029-035>040-094-181800-
NORTH CENTRAL NEBRASKA

CITY           SKY/WX    TMP DP  RH WIND       PRES   REMARKS
VALENTINE        N/A     51  28  41 S8        29.79R
AINSWORTH      SUNNY     54  32  44 S12       29.80F
BROKEN BOW     SUNNY     53  31  42 SE12      29.82R
O`NEILL        SUNNY     55  33  44 S5        29.83S
ORD            SUNNY     53  30  41 E5        29.83R
THEDFORD       SUNNY     54  29  37 S12       29.82R
$$

NEZ041-046>049-061>064-073>077-083>087-181800-
SOUTH CENTRAL NEBRASKA

CITY           SKY/WX    TMP DP  RH WIND       PRES   REMARKS
GRAND ISLAND   SUNNY     52  35  52 E9        29.84S
AURORA         SUNNY     55  33  44 E10       29.83F
HASTINGS       SUNNY     56  33  42 SE12      29.84S
HEBRON         SUNNY     56  35  45 E13       29.83S
HOLDREGE       SUNNY     54  32  43 E13       29.82F
KEARNEY *      SUNNY     55  30  38 CALM      29.84S
YORK           SUNNY     55  36  47 E9        29.84F
$$

NEZ011>018-030>034-042>045-181800-
NORTHEAST NEBRASKA

CITY           SKY/WX    TMP DP  RH WIND       PRES   REMARKS
NORFOLK        SUNNY     51  31  46 MISG      29.83S
ALBION         SUNNY     52  36  53 SE3       29.84R
BLAIR          SUNNY     55  35  48 NE9       29.84S
FREMONT        SUNNY     52  36  54 CALM      29.85S
TEKAMAH        SUNNY     48  37  65 S3        29.86R
WAYNE          SUNNY     51  35  55 CALM      29.83F
$$

NEZ050>053-065>068-078-088>093-181800-
SOUTHEAST NEBRASKA

CITY           SKY/WX    TMP DP  RH WIND       PRES   REMARKS
LINCOLN        SUNNY     56  35  45 E8        29.86F
OMAHA EPPLEY   MOSUNNY   54  37  52 N6        29.84S
BEATRICE       SUNNY     58  37  44 E7        29.83F
FALLS CITY     SUNNY     57  38  48 E6        29.82F
NEBRASKA CITY  SUNNY     53  31  43 N6        29.85R
PLATTSMOUTH    SUNNY     55  32  40 E7        29.85S
$$

NEZ044-045-051>053-067-181800-
OMAHA AREA

CITY           SKY/WX    TMP DP  RH WIND       PRES   REMARKS
OMAHA EPPLEY   MOSUNNY   54  37  52 N6        29.84S
BLAIR          SUNNY     55  35  48 NE9       29.84S
FREMONT        SUNNY     52  36  54 CALM      29.85S
MILLARD        SUNNY     58  37  46 E6        29.84F
OFFUTT AFB     SUNNY     56  38  52 NE6       29.84S
PLATTSMOUTH    SUNNY     55  32  40 E7        29.85S
WAHOO          FAIR      53  36  51 CALM      29.84F
$$




USA.gov is the U.S. government's official web portal to all federal, state and local government web resources and services.